This demonstration page uses our WeatherBlox Daily Observations layout. Learn more.

Left ArrowRight Arrow

Hourly Observations for July 4, 2015

Temp ( °F °C ) Dew Point ( °F °C ) Humidity (%) Winds ( mph kmh ) Pressure ( in mb ) Visibility ( mi km ) Precip ( " mm )
12:52 am 00:52 Clear 69 20.6 65 18.3 87 87 NNE 5 7 29.92 1013 10 16 0.00 0.00
1:52 am 01:52 Clear 68 20 64 17.8 87 87 Calm 29.93 1014 10 16 0.00 0.00
2:52 am 02:52 Cloudy 69 20.6 64 17.8 84 84 NE 5 7 29.93 1014 10 16 0.00 0.00
3:52 am 03:52 Partly Cloudy 66 18.9 63 17.2 90 90 N 5 7 29.93 1013 10 16 0.00 0.00
4:52 am 04:52 Clear 66 18.9 62 16.7 87 87 NNE 3 6 29.93 1013 10 16 0.00 0.00
5:52 am 05:52 Mostly Clear 66 18.9 62 16.7 87 87 Calm 29.95 1014 10 16 0.00 0.00
6:52 am 06:52 Sunny 66 18.9 61 16.1 84 84 Calm 29.96 1015 10 16 0.00 0.00
7:52 am 07:52 Cloudy 69 20.6 63 17.2 81 81 SE 3 6 29.98 1015 10 16 0.00 0.00
8:52 am 08:52 Sunny 74 23.3 64 17.8 71 71 E 6 9 29.98 1015 10 16 0.00 0.00
9:52 am 09:52 Sunny 77 25 64 17.8 64 64 SE 7 11 29.98 1015 10 16 0.00 0.00
10:52 am 10:52 Sunny 77 25 63 17.2 62 62 SSE 5 7 29.98 1015 10 16 0.00 0.00
11:52 am 11:52 Sunny 80 26.7 65 18.3 60 60 VRB 3 6 29.99 1016 10 16 0.00 0.00
12:52 pm 12:52 Mostly Sunny 81 27.2 64 17.8 57 57 SSE 3 6 29.97 1015 10 16 0.00 0.00
1:52 pm 13:52 Partly Cloudy 82 27.8 65 18.3 56 56 ENE 6 9 29.96 1014 10 16 0.00 0.00
2:52 pm 14:52 Mostly Cloudy 83 28.3 63 17.2 51 51 Calm 29.95 1014 10 16 0.00 0.00
3:52 pm 15:52 Mostly Cloudy 86 30 66 18.9 51 51 N 5 7 29.94 1014 10 16 0.00 0.00
4:52 pm 16:52 Partly Cloudy 84 28.9 64 17.8 51 51 E 5 7 29.93 1013 10 16 0.00 0.00
5:52 pm 17:52 Sunny 83 28.3 65 18.3 55 55 Calm 29.92 1013 10 16 0.00 0.00
6:52 pm 18:52 Mostly Cloudy 83 28.3 65 18.3 55 55 ENE 6 9 29.92 1013 10 16 0.00 0.00
7:52 pm 19:52 Partly Cloudy 80 26.7 68 20 67 67 N 6 9 29.92 1013 9 14 0.00 0.00
8:52 pm 20:52 Mostly Clear 77 25 68 20 74 74 Calm 29.93 1014 9 14 0.00 0.00
9:52 pm 21:52 Mostly Cloudy 74 23.3 69 20.6 85 85 S 3 6 29.96 1014 9 14 0.00 0.00
10:52 pm 22:52 Hazy 73 22.8 68 20 84 84 SE 7 11 29.97 1015 5 8 0.00 0.00
11:52 pm 23:52 Hazy 73 22.8 68 20 84 84 SSE 8 13 29.98 1015 5 8 0.00 0.00

Powered by AerisWeather